Back to catalog

STARLINK-32470

AliveCommunicationsVLEO
NORAD 62115·PAYLOAD·🇺🇸 United States

Launched Nov 27, 2024 from Cape Canaveral Space Force Station

Loading…

Next Passes (next 24 hours)

TLE

FreshSource: CelesTrak SupGP

Epoch: Sep 14, 2026, 22:40 UTC

1 62115C 24222B   26257.94493056 -.00216910  00000+0 -78520-2 0  2570
2 62115  43.0005 147.2012 0001278 271.2438 143.2287 15.27705622    16

Track STARLINK-32470 in real time with AllMySat

Download on the App Store